Wind_Speed
32 31 30 30 30 30 30 28 25 23 22 20 19 17 16 16 15 14 13 13 12 12 11 11 11 11 12 12 12 12 13 13 13 14 15 15 15 14 14 15 15 16 16 16
33 32 32 32 32 31 31 29 27 26 24 21 20 20 18 18 17 16 15 14 13 14 13 13 13 13 13 13 14 14 14 15 15 16 16 16 16 16 16 16 16 16 17 17
34 33 32 34 33 33 32 30 29 27 25 23 22 22 21 19 18 17 16 16 16 16 16 15 15 15 15 15 15 16 16 16 17 17 17 17 18 18 18 18 18 18 18 19
35 35 35 35 33 33 32 31 30 29 27 25 24 23 23 22 21 21 20 20 19 19 18 18 17 18 18 18 18 19 18 18 19 19 20 20 20 20 20 20 20 20 20 20
36 35 36 36 35 34 33 33 31 30 29 27 26 25 25 24 23 24 23 22 22 21 21 21 20 20 21 20 20 21 21 21 21 22 22 22 22 22 22 22 21 22 22 22
38 36 36 36 35 34 34 35 32 31 30 29 28 27 27 25 25 25 24 25 24 24 24 23 23 23 22 22 23 23 23 23 23 24 24 24 24 23 23 24 24 24 24 24
38 37 36 36 36 35 36 35 33 32 31 30 30 29 28 27 27 26 25 25 25 24 25 25 25 25 24 24 25 25 25 26 26 26 26 26 26 26 26 26 26 26 26 25
39 39 38 37 37 37 36 35 34 33 32 31 30 30 29 28 27 27 27 27 26 25 26 26 26 26 27 27 28 28 28 28 29 29 28 28 28 27 28 27 28 27 27 27
41 40 39 38 38 37 37 36 35 34 33 33 32 31 30 28 28 28 28 28 28 28 28 28 29 29 30 30 30 30 30 31 31 31 30 30 29 29 29 29 29 28 28 28
41 41 40 39 38 37 36 36 36 36 35 34 33 32 31 30 30 29 30 30 30 30 30 30 30 31 31 31 32 32 32 32 32 32 31 31 31 32 32 31 31 31 30 30
40 40 39 38 37 37 37 36 36 37 36 35 34 33 32 32 31 31 31 31 31 31 30 30 30 31 32 33 33 33 33 33 33 33 32 32 32 33 33 33 33 33 32 32
39 40 39 38 36 36 36 35 35 36 36 35 34 33 33 33 33 33 32 32 32 31 32 31 31 31 33 34 35 35 34 34 34 34 34 34 34 34 35 35 35 35 34 33
36 37 37 37 37 37 36 35 35 34 34 34 34 35 35 34 34 34 34 33 32 32 32 32 32 33 34 35 35 36 36 36 36 36 36 36 36 36 36 36 35 35 34 33
36 35 35 36 36 36 36 35 34 34 34 34 35 35 34 34 34 33 33 33 32 33 33 33 34 34 35 36 36 37 37 38 38 38 38 37 38 38 37 36 36 36 35 34
36 35 35 35 35 35 35 35 34 34 35 35 34 34 34 34 34 34 33 33 33 33 33 34 35 36 36 37 37 37 38 38 38 38 38 38 38 38 38 38 37 36 36 36
34 34 34 34 34 34 35 35 35 34 35 35 35 35 34 34 34 34 34 34 34 33 34 35 36 36 36 36 37 37 37 38 38 38 38 38 38 38 38 38 37 37 35 35
32 33 33 33 33 34 34 34 33 33 33 34 35 35 35 35 35 35 34 34 34 33 33 34 34 35 35 35 35 36 36 36 37 37 38 38 38 38 37 37 35 34 34 34
30 31 31 31 32 32 33 33 33 32 31 32 33 33 34 34 33 33 33 33 33 33 33 33 34 34 35 35 35 35 36 36 36 37 37 37 38 38 37 36 34 34 34 34
30 30 30 30 30 31 31 31 31 31 31 31 31 32 32 32 32 32 33 32 32 32 33 33 34 34 34 34 34 35 35 35 36 36 36 35 35 34 34 34 33 34 35 35
29 30 29 29 29 30 31 30 30 30 30 30 30 30 30 31 32 32 32 31 31 31 31 31 31 31 31 33 34 34 33 33 33 32 32 33 33 33 33 33 33 34 34 34
26 28 29 29 29 29 29 29 29 29 30 30 30 30 30 30 31 31 30 30 30 30 29 30 30 31 31 32 33 33 32 31 32 32 32 32 33 33 33 33 32 32 33 33
25 25 26 27 27 28 28 28 29 29 29 29 30 30 30 30 29 29 29 30 30 30 29 29 29 30 31 31 31 32 31 31 31 30 31 31 30 31 31 31 31 31 31 31
22 23 24 25 26 26 27 27 28 29 28 29 29 29 28 28 28 29 29 29 28 29 29 29 29 30 30 30 30 30 30 30 29 29 29 30 30 30 30 30 29 29 30 30
19 21 22 23 24 25 25 26 26 27 27 26 27 28 27 27 27 27 28 27 27 28 28 28 29 29 29 29 29 29 29 28 28 28 28 28 29 29 29 29 29 30 30 30
20 20 21 21 22 22 22 23 24 24 25 25 25 26 26 27 27 27 27 28 27 27 28 27 26 26 27 27 27 27 27 26 26 27 28 29 29 28 28 29 29 30 30 31
18 18 19 20 21 21 21 21 22 22 23 24 25 25 26 26 27 27 28 27 27 27 26 26 26 25 26 26 26 26 26 26 26 26 26 26 26 26 26 27 27 28 29 29
17 18 19 19 19 19 20 20 20 20 21 21 22 23 25 26 27 27 27 27 26 26 26 26 25 25 25 25 26 26 26 25 25 25 24 24 24 25 25 25 26 27 27 28
Wind_Direction
224 227 229 230 231 231 231 233 236 239 240 243 248 250 253 254 254 256 260 264 266 267 271 277 280 283 288 294 300 306 309 310 310 312 314 316 319 322 321 322 323 323 322 322
227 227 229 230 230 230 231 233 236 239 241 242 249 251 253 255 254 256 257 261 263 267 272 277 280 283 286 291 295 299 303 305 306 308 310 312 312 315 315 316 317 317 318 318
228 229 230 231 230 230 232 234 236 239 242 244 246 248 249 250 253 256 256 257 263 266 271 276 278 282 285 289 293 297 298 300 303 305 307 308 309 309 310 311 311 312 312 313
228 229 231 233 233 233 234 234 236 238 242 245 246 247 248 250 253 255 257 259 263 266 270 272 276 281 286 289 293 296 297 298 299 301 302 303 304 305 306 307 307 308 309 311
227 231 234 234 233 233 234 235 236 239 242 244 245 246 247 250 253 257 257 258 261 264 267 269 274 280 284 287 290 292 294 295 296 298 299 300 300 301 302 303 304 304 305 306
228 230 234 236 236 236 237 238 237 238 241 242 243 245 248 250 254 257 258 258 259 260 264 268 273 278 280 283 286 289 292 293 294 294 295 297 298 298 299 300 301 302 303 302
228 231 235 236 237 236 237 239 238 238 240 241 242 245 249 251 252 254 256 257 259 261 264 267 271 274 277 280 282 285 287 290 292 292 293 294 295 297 298 298 299 299 300 299
229 231 234 236 237 237 238 240 240 239 240 242 244 245 248 250 251 252 253 255 259 262 264 266 270 273 275 277 279 283 285 287 289 289 290 292 293 294 296 297 297 296 297 298
230 232 234 237 238 238 239 240 240 240 242 244 246 246 246 248 250 251 251 253 257 260 263 266 270 273 275 276 278 282 283 285 286 287 287 288 290 291 293 293 293 294 294 295
232 233 234 237 239 239 239 241 241 241 242 244 246 246 246 248 250 251 254 256 257 261 264 267 270 272 273 275 278 281 283 284 285 286 286 287 288 290 291 291 290 291 292 292
233 234 235 237 239 239 239 240 242 242 242 244 246 246 246 247 249 252 254 256 259 262 266 268 271 271 272 274 277 278 282 284 285 286 285 286 288 288 288 289 290 291 291 291
233 234 235 235 237 238 239 240 242 244 243 244 245 245 247 249 250 252 255 257 260 264 266 269 270 271 272 274 276 278 279 281 283 284 283 284 285 286 286 287 288 290 289 288
234 235 236 236 238 238 238 240 241 243 244 244 244 246 247 250 251 253 256 258 261 263 266 267 269 272 273 274 276 277 278 280 281 281 281 282 282 283 284 283 284 287 287 288
234 234 235 237 238 239 239 240 241 242 243 244 244 246 248 250 252 254 257 259 261 264 265 267 269 271 273 275 276 277 278 279 279 280 280 281 282 282 283 282 283 284 285 286
234 234 235 237 237 239 240 241 242 243 243 244 245 246 247 250 252 254 257 259 261 263 265 268 269 271 273 274 276 278 279 279 280 280 280 281 282 281 281 283 284 284 286 287
232 233 235 237 238 240 242 244 244 243 244 244 245 246 247 249 251 253 255 258 262 265 267 269 270 272 273 275 277 278 279 280 281 281 280 280 281 282 282 283 284 285 285 286
232 233 235 236 237 239 242 244 245 244 244 245 246 246 247 249 252 254 257 260 263 265 267 269 271 273 274 276 278 279 280 281 281 281 281 280 280 281 282 282 282 284 286 286
231 233 234 236 237 238 239 241 242 243 245 247 247 246 247 250 253 255 257 260 263 265 266 268 271 273 274 277 279 280 281 281 281 281 282 283 282 280 280 280 281 282 284 285
232 232 234 236 238 238 239 240 241 242 244 245 245 246 248 250 252 255 257 260 262 263 265 268 271 274 275 278 281 282 281 281 282 282 282 282 283 282 281 281 281 282 284 284
232 233 235 237 238 238 239 241 242 242 243 244 244 246 248 250 252 255 257 259 262 264 266 268 272 276 278 279 280 282 282 283 283 284 284 284 283 283 283 284 283 283 283 284
235 236 237 237 238 238 238 239 240 242 242 242 243 245 247 249 252 253 255 258 261 264 268 271 274 276 279 280 280 281 282 283 284 285 286 286 285 284 284 285 285 284 285 285
235 235 236 236 236 237 238 239 241 242 242 244 246 246 247 249 251 251 254 258 261 264 268 272 275 277 280 282 282 282 283 284 285 286 286 287 287 288 288 287 287 287 286 286
234 233 233 234 236 237 238 239 242 243 245 245 246 248 249 248 249 252 255 258 261 264 268 271 274 277 278 280 283 283 285 286 286 286 287 287 288 290 291 291 290 290 289 289
233 232 231 233 235 236 237 240 243 244 245 244 244 246 248 250 251 253 256 258 261 265 268 271 273 276 279 281 282 283 283 283 284 285 287 288 288 289 290 290 290 290 290 290
236 234 232 233 234 235 237 240 243 244 243 243 243 246 248 250 252 255 258 260 261 264 267 271 273 277 280 282 283 283 282 281 283 285 286 287 288 288 288 289 289 289 290 291
239 239 238 235 234 236 238 240 242 244 245 245 246 248 250 251 253 257 259 261 263 265 267 269 271 275 279 281 282 282 282 283 284 286 287 288 289 289 290 291 292 293 294 295
240 241 239 235 236 238 238 239 242 243 244 246 248 250 251 253 255 257 259 260 261 263 266 268 270 275 280 282 282 281 281 281 282 284 286 287 289 290 292 294 295 296 297 297
Height
5867 5872 5875 5879 5883 5886 5890 5895 5899 5902 5904 5905 5907 5908 5909 5910 5911 5912 5913 5913 5914 5914 5914 5914 5913 5912 5911 5910 5909 5908 5907 5905 5903 5902 5900 5898 5895 5894 5892 5890 5887 5885 5883 5880
5859 5864 5868 5872 5876 5880 5884 5888 5892 5895 5898 5900 5902 5903 5905 5906 5907 5908 5909 5909 5910 5910 5910 5910 5909 5909 5908 5907 5906 5905 5903 5902 5900 5898 5897 5895 5893 5891 5889 5886 5884 5882 5880 5877
5853 5857 5861 5864 5868 5873 5877 5881 5885 5888 5892 5894 5896 5898 5899 5901 5902 5903 5904 5905 5905 5906 5906 5906 5906 5905 5904 5903 5902 5901 5900 5898 5897 5895 5893 5891 5889 5887 5885 5883 5881 5878 5876 5873
5846 5850 5853 5859 5863 5867 5871 5874 5878 5881 5884 5887 5890 5892 5894 5895 5897 5898 5899 5900 5900 5901 5901 5901 5901 5901 5900 5899 5898 5897 5895 5894 5892 5890 5888 5886 5885 5883 5881 5879 5876 5874 5872 5869
5838 5842 5845 5850 5854 5859 5863 5867 5871 5874 5877 5881 5883 5885 5887 5889 5890 5892 5893 5894 5895 5895 5896 5896 5896 5895 5895 5894 5893 5892 5891 5889 5887 5885 5883 5882 5880 5878 5876 5873 5871 5869 5867 5864
5829 5834 5838 5843 5847 5851 5856 5858 5863 5867 5870 5873 5876 5879 5881 5882 5884 5885 5886 5888 5888 5889 5890 5890 5890 5889 5889 5888 5887 5886 5885 5884 5882 5880 5878 5876 5874 5872 5870 5868 5866 5863 5861 5858
5820 5825 5830 5835 5839 5843 5848 5852 5856 5859 5863 5866 5868 5872 5874 5875 5877 5878 5880 5881 5882 5882 5883 5883 5883 5883 5883 5882 5881 5880 5878 5877 5875 5873 5871 5869 5868 5866 5864 5861 5859 5857 5855 5852
5812 5817 5824 5826 5830 5835 5839 5844 5847 5851 5854 5858 5861 5864 5866 5868 5870 5872 5873 5874 5875 5876 5876 5876 5876 5876 5876 5875 5874 5873 5871 5870 5868 5866 5864 5862 5860 5859 5857 5854 5852 5850 5847 5845
5804 5810 5813 5817 5821 5826 5831 5835 5838 5842 5846 5850 5853 5855 5858 5860 5862 5864 5865 5866 5867 5868 5868 5869 5869 5868 5868 5867 5866 5865 5863 5862 5860 5858 5856 5854 5852 5851 5849 5846 5844 5842 5839 5837
5794 5799 5804 5808 5812 5817 5821 5826 5830 5834 5837 5841 5844 5847 5850 5852 5854 5856 5857 5858 5859 5860 5860 5861 5861 5860 5859 5859 5858 5856 5855 5853 5851 5849 5847 5846 5844 5842 5840 5838 5835 5833 5831 5829
5784 5790 5795 5799 5804 5808 5813 5816 5820 5824 5828 5832 5835 5838 5841 5843 5845 5847 5849 5850 5851 5851 5852 5852 5852 5851 5850 5849 5849 5847 5846 5844 5842 5840 5838 5837 5835 5833 5831 5829 5826 5824 5822 5820
5776 5781 5786 5791 5795 5799 5803 5807 5811 5815 5819 5822 5826 5829 5832 5834 5836 5838 5839 5841 5842 5842 5843 5843 5842 5842 5841 5840 5839 5838 5836 5835 5833 5831 5829 5827 5825 5824 5821 5819 5817 5815 5812 5810
5767 5771 5776 5781 5786 5790 5794 5798 5802 5805 5809 5813 5816 5819 5822 5824 5826 5828 5830 5831 5832 5833 5833 5833 5833 5832 5831 5830 5829 5827 5826 5824 5822 5820 5818 5817 5815 5813 5811 5809 5806 5804 5802 5800
5758 5763 5767 5772 5776 5780 5785 5789 5792 5796 5800 5803 5806 5809 5812 5815 5817 5818 5820 5821 5823 5823 5824 5823 5823 5822 5821 5820 5818 5817 5815 5813 5811 5809 5807 5806 5804 5802 5800 5798 5796 5794 5792 5790
5750 5754 5759 5763 5767 5771 5775 5779 5782 5786 5790 5793 5796 5799 5802 5805 5807 5809 5811 5812 5813 5813 5813 5813 5813 5812 5811 5809 5808 5806 5804 5803 5801 5799 5797 5795 5793 5792 5789 5787 5785 5783 5781 5779
5741 5745 5750 5754 5758 5762 5766 5769 5773 5776 5780 5783 5786 5789 5793 5795 5797 5799 5801 5802 5802 5803 5803 5803 5802 5801 5800 5799 5797 5796 5794 5792 5790 5788 5786 5784 5783 5780 5778 5777 5775 5773 5771 5768
5733 5737 5742 5746 5750 5753 5757 5760 5763 5766 5770 5773 5776 5779 5782 5785 5787 5789 5790 5791 5792 5793 5793 5792 5792 5791 5789 5788 5786 5785 5783 5781 5779 5777 5775 5773 5771 5769 5767 5765 5764 5762 5760 5758
5725 5729 5734 5738 5741 5744 5748 5751 5754 5758 5761 5764 5766 5769 5772 5775 5777 5779 5780 5781 5782 5782 5782 5782 5781 5780 5779 5778 5776 5774 5772 5770 5768 5766 5764 5762 5760 5758 5756 5754 5753 5751 5750 5748
5718 5722 5726 5729 5732 5736 5739 5742 5745 5749 5752 5754 5757 5760 5763 5765 5767 5769 5771 5772 5772 5773 5773 5772 5771 5770 5769 5767 5765 5763 5761 5759 5758 5755 5753 5751 5749 5747 5745 5743 5742 5741 5739 5738
5711 5715 5718 5722 5725 5728 5731 5734 5737 5740 5743 5746 5749 5751 5754 5756 5758 5760 5761 5762 5763 5763 5763 5762 5762 5760 5759 5757 5755 5753 5752 5749 5747 5745 5743 5742 5740 5738 5735 5734 5732 5730 5729 5728
5705 5708 5711 5715 5718 5721 5723 5727 5730 5732 5735 5737 5740 5743 5745 5747 5748 5750 5751 5753 5754 5754 5754 5753 5752 5751 5749 5747 5745 5744 5742 5741 5739 5737 5735 5733 5731 5728 5726 5724 5722 5720 5719 5717
5699 5702 5705 5707 5711 5714 5716 5719 5722 5725 5727 5730 5732 5734 5736 5738 5739 5740 5742 5744 5744 5745 5745 5744 5743 5742 5740 5738 5737 5735 5734 5732 5730 5728 5726 5724 5722 5720 5717 5715 5713 5711 5709 5707
5693 5696 5698 5701 5704 5707 5709 5712 5714 5717 5719 5722 5724 5725 5727 5729 5730 5732 5734 5735 5735 5736 5736 5735 5735 5734 5732 5731 5729 5727 5725 5724 5722 5720 5717 5715 5713 5711 5709 5706 5704 5702 5700 5698
5688 5690 5693 5695 5697 5700 5702 5705 5707 5710 5712 5714 5716 5718 5720 5721 5723 5724 5725 5726 5727 5727 5727 5727 5726 5725 5724 5722 5721 5719 5717 5715 5713 5711 5709 5707 5705 5703 5700 5698 5696 5694 5692 5690
5683 5685 5687 5690 5692 5694 5696 5698 5701 5703 5705 5707 5709 5710 5712 5714 5716 5717 5718 5718 5719 5719 5719 5719 5718 5717 5716 5714 5712 5710 5709 5707 5705 5703 5701 5699 5697 5694 5692 5690 5688 5685 5683 5681
5678 5680 5682 5684 5686 5689 5690 5692 5694 5696 5698 5700 5702 5704 5705 5707 5708 5709 5710 5710 5710 5711 5711 5711 5710 5709 5708 5706 5704 5703 5701 5699 5697 5695 5693 5691 5688 5686 5684 5682 5679 5677 5675 5672
5674 5675 5677 5679 5681 5683 5685 5686 5688 5690 5692 5693 5695 5696 5698 5699 5700 5701 5701 5701 5702 5702 5703 5703 5702 5701 5700 5698 5697 5695 5693 5691 5689 5687 5685 5683 5681 5679 5677 5674 5672 5669 5667 5664